Newton, KS

9:27 PM CST on November 11, 2019 (GMT -0600)
Newton City County

Weather History for KEWK - August, 2019

Change the Weather History Date:

Tuesday, August 6, 2019

  Actual Average Record
Temperature  
Mean Temperature 82 °F -  
Max Temperature 93 °F 86 °F 100 °F (2001)
Min Temperature 71 °F 65 °F 60 °F (1997)
Cooling Degree Days 17    
Growing Degree Days 32 (Base 50)    
Moisture  
Dew Point 71 °F    
Average Humidity 77    
Maximum Humidity 94    
Minimum Humidity 49    
Precipitation  
Precipitation 0.00 in - - ()
Sea Level Pressure  
Sea Level Pressure 29.91 in    
Wind  
Wind Speed 7 mph (South)    
Max Wind Speed 18 mph    
Max Gust Speed 34 mph    
Visibility 10 miles    
Events Rain , Thunderstorm    
Averages and records for this station are not official NWS values.
T = Trace of Precipitation, MM = Missing Value Source: NWS Daily Summary

Daily Weather History Graph

Daily Weather History Graph

Search for Another Location

Airport or City:

Astronomy

Aug. 06, 2019 Rise Set
Actual Time 6:36 AM CDT 8:33 PM CDT
Civil Twilight 6:07 AM CDT 9:02 PM CDT
Nautical Twilight 5:32 AM CDT 9:37 PM CDT
Astronomical Twilight 4:54 AM CDT 10:14 PM CDT
Moon 12:56 PM CDT (8/6) No Moon Set
Length of Visible Light 14h 54m
Length of Day
13h 57m
Waxing Crescent, 39% of the Moon is Illuminated
Aug 6
Waxing Crescent
Aug 7
First Quarter
Aug 15
Full
Aug 23
Last Quarter
Aug 30
New

Hourly Weather History & Observations

Time (CDT) Temp. Heat Index Dew Point Humidity Pressure Visibility Wind Dir Wind Speed Gust Speed Precip Events Conditions
12:56 AM 75.0 °F - 70.0 °F 84% 29.92 in 10.0 mi SW 8.1 mph - N/A   Unknown
1:56 AM 75.0 °F - 69.1 °F 82% 29.92 in 10.0 mi SW 6.9 mph - N/A   Unknown
2:56 AM 73.9 °F - 69.1 °F 85% 29.92 in 10.0 mi SW 6.9 mph - N/A   Unknown
3:56 AM 73.0 °F - 69.1 °F 87% 29.92 in 10.0 mi SSW 4.6 mph - N/A   Unknown
4:56 AM 73.0 °F - 69.1 °F 87% 29.92 in 10.0 mi SSW 5.8 mph - N/A   Unknown
5:56 AM 72.0 °F - 69.1 °F 91% 29.92 in 10.0 mi SSW 5.8 mph - N/A   Unknown
6:56 AM 71.1 °F - 69.1 °F 93% 29.93 in 10.0 mi South 5.8 mph - N/A   Unknown
7:56 AM 75.0 °F - 72.0 °F 90% 29.94 in 10.0 mi ENE 3.5 mph - N/A   Unknown
8:56 AM 80.1 °F 83.8 °F 72.0 °F 76% 29.96 in 10.0 mi Calm Calm - N/A   Partly Cloudy
9:56 AM 82.0 °F 87.4 °F 73.0 °F 74% 29.96 in 10.0 mi Variable 5.8 mph - N/A   Unknown
10:56 AM 86.0 °F 93.0 °F 73.0 °F 65% 29.95 in 10.0 mi WSW 8.1 mph - N/A   Clear
11:56 AM 90.0 °F 99.0 °F 73.9 °F 59% 29.94 in 10.0 mi West 8.1 mph - N/A   Clear
12:56 PM 91.9 °F 101.3 °F 73.9 °F 55% 29.93 in 10.0 mi West 3.5 mph - N/A   Clear
1:56 PM 93.9 °F 103.4 °F 73.0 °F 51% 29.91 in 10.0 mi Variable 4.6 mph - N/A   Clear
3:29 PM 89.6 °F 93.4 °F 68.0 °F 49% 29.93 in 10.0 mi South 6.9 mph - N/A Thunderstorm Unknown
3:56 PM 81.0 °F 83.0 °F 66.0 °F 60% 29.89 in 10.0 mi SW 18.4 mph 34.5 mph 0.00 in Rain , Thunderstorm Light Thunderstorms and Rain
4:42 PM 80.6 °F 83.9 °F 69.8 °F 70% 29.94 in 10.0 mi SE 10.4 mph - 0.00 in   Unknown
4:56 PM 80.1 °F 82.9 °F 69.1 °F 69% 29.90 in 10.0 mi SE 12.7 mph - 0.00 in   Unknown
5:17 PM 78.8 °F - 71.6 °F 78% 29.94 in 10.0 mi SE 11.5 mph - 0.00 in Rain , Thunderstorm Light Thunderstorms and Rain
5:21 PM 78.8 °F - 71.6 °F 78% 29.94 in 10.0 mi SE 10.4 mph - 0.00 in Rain , Thunderstorm Light Thunderstorms and Rain
5:39 PM 78.8 °F - 71.6 °F 78% 29.93 in 10.0 mi ESE 6.9 mph - 0.00 in   Unknown
5:56 PM 79.0 °F - 72.0 °F 79% 29.88 in 10.0 mi South 6.9 mph - 0.00 in   Unknown
6:49 PM 80.6 °F 84.6 °F 71.6 °F 74% 29.89 in 10.0 mi SW 3.5 mph - N/A Thunderstorm Thunderstorm
6:56 PM 81.0 °F 85.8 °F 73.0 °F 77% 29.86 in 10.0 mi WSW 5.8 mph - 0.00 in Rain , Thunderstorm Light Thunderstorms and Rain
7:34 PM 80.6 °F 85.4 °F 73.4 °F 79% 29.90 in 10.0 mi WNW 4.6 mph - 0.00 in   Unknown
7:56 PM 79.0 °F - 73.9 °F 84% 29.85 in 10.0 mi Calm Calm - 0.00 in   Unknown
8:56 PM 75.9 °F - 73.9 °F 94% 29.85 in 10.0 mi ESE 6.9 mph - N/A   Unknown
9:56 PM 75.0 °F - 73.0 °F 94% 29.87 in 10.0 mi ESE 6.9 mph - N/A   Unknown
10:56 PM 75.0 °F - 73.0 °F 94% 29.88 in 10.0 mi SE 8.1 mph - N/A   Unknown
11:56 PM 75.0 °F - 71.1 °F 87% 29.87 in 10.0 mi ESE 9.2 mph - N/A   Unknown